Location: Alafon
(8.4500°N, 4.2333°E)
Time: 00:20:16
(UTC+00:00)

deb Explorer IX - Pass Details

Date: 02 August 2021
Orbit: 545 x 1091 km, 38.8° (Epoch: 19 September)

Event Time Altitude Azimuth Distance (km) Brightness Sun altitude
Rises 09:46:08 0° 247° (WSW) 2,691 ? 58.7°
Reaches altitude 10° 09:48:29 10° 256° (WSW) 1,802 ? 59.2°
Maximum altitude 09:52:13 34° 323° (NW) 923 ? 60.1°
Drops below altitude 10° 09:56:11 10° 29° (NNE) 1,913 ? 61.0°
Sets 09:58:45 0° 38° (NE) 2,884 ? 61.6°
